星链-34933 (STARLINK-34933)

导读 | 豆包AI

STARLINK-34933是美国SpaceX公司于2025年8月18日发射的星链(Starlink)卫星星座一员,运行于近地低轨道,属于全球卫星互联网组网项目的一部分。它将和其他星链卫星共同协作,面向全球提供高速低延迟宽带互联网服务,重点服务偏远、基础设施匮乏地区,同时也支撑应急通信等多元场景,不过星链大规模组网也引发了太空轨道拥堵等行业讨论。

基本信息
目录编号:
65253
目录名称:
STARLINK-34933
国际标识:
2025-179U
轨道中心:
EARTH
卫星名称:
星链-34933
卫星全名:
星链-34933 (STARLINK-34933)
卫星状态:
在轨 (已飞行254 天)
发射日期:
2025-08-18 UTC
国别 :
美国 (US)
星等 :
--
轨道信息
数据来源 国际轨道数据
星历时间: 2026-04-29T10:54:38+0800
6小时前
查看轨道信息
半长轴: 6927.692km
偏心率: 0.0001199
轨道倾角: 97.559°
近地点辐角 155.715°
升交点赤经 162.595°
平近点角 204.413°
近地点: 548.724km
远地点: 550.386km
周期: 95.641分钟
每日圈数: 15.056359
详细信息
固有亮度:
5
最大亮度:
2.5
卫星平台:
Starlink V1.0
覆盖范围:
全球
运营商:
太空探索技术公司
运营商所在国:
美国
制造商(研发单位):
太空探索技术公司
制造商所在国:
美国
使用方式:
暂无
卫星简介
Starlink 计划是 SpaceX 推出的全球卫星互联网项目,通过发射低轨道卫星,为全球尤其是偏远地区提供高速、低延迟的互联网服务。自 2019 年起,Starlink 已部署数千颗卫星,旨在缩小全球数字鸿沟,推动互联网普及。该项目还为军事、航空等行业提供通信支持,带来广泛经济效益。
2D轨道图
3D轨道图
轨道高度分析图
轨道倾角分析图
轨道综合分析图
查看轨道综合分析图